Location: A�n Tadlesse
(35.0351°N, 0.5353°E)
Time: 23:11:27
(UTC+00:00)

OAO 3 Copernicus - Pass Details

Date: 21 October 2019
Orbit: 695 x 704 km, 35.0° (Epoch: 17 November)

Event Time Altitude Azimuth Distance (km) Brightness Sun altitude
Rises 19:06:49 0° 271° (W) 3,079 9.1 -23.4°
Reaches altitude 10° 19:09:13 10° 271° (W) 2,160 7.9 -23.9°
Maximum altitude 19:14:18 89° 358° (N) 703 4.2 -24.9°
Enters shadow 19:14:30 83° 83° (E) 707 4.1 -25.0°
